RH
34 35 35 35 36 38 38 34 32 30 21 11 6 4 3 3 4 3 3 3 3 3 3 4 3 3 3 3 3 3 3 3 3 3 3 3 3 3 3 3 3 3 3 4 4 5 5 6 7 8 9 9 11 12 13 14 14 14 14 13 13 13 13 13 13 12 12 15 20 29 37 42 42 40 36 32 29 34 45 53 50 43 42 43 44
35 36 35 35 36 37 40 38 34 32 28 18 8 5 4 3 4 3 3 3 3 3 3 3 3 3 3 3 3 3 3 3 3 3 3 3 3 3 3 3 3 3 3 3 3 4 4 5 6 6 7 8 9 10 11 13 13 14 15 15 14 14 13 13 13 13 13 12 13 16 21 28 34 36 35 32 28 30 39 52 58 55 50 50 50
35 37 37 36 37 37 38 40 37 35 34 27 14 6 4 4 3 4 3 3 3 3 3 3 3 3 3 3 3 3 3 3 3 3 3 3 3 3 3 2 3 3 3 3 3 3 4 4 5 5 6 6 7 8 9 11 12 13 14 14 15 15 14 14 14 14 14 13 13 13 13 16 20 24 27 27 26 27 31 42 56 62 59 57 57
35 39 39 37 37 38 38 39 39 37 36 33 22 10 5 4 3 4 4 3 3 3 3 3 3 3 3 3 3 3 3 3 3 3 3 3 3 3 3 3 3 3 3 3 3 3 3 3 4 4 4 5 6 7 7 8 10 11 12 13 14 15 15 15 15 14 14 14 14 14 13 13 13 15 17 19 20 21 24 29 42 57 63 60 60
34 39 41 38 37 38 39 39 39 39 37 36 30 18 8 5 4 4 4 4 3 3 3 3 3 3 3 3 3 3 2 3 2 3 3 3 3 3 3 3 3 3 2 2 3 3 3 3 3 3 3 4 4 5 6 7 8 9 10 11 13 14 15 15 16 16 15 15 15 15 14 14 14 13 13 13 14 15 16 18 25 39 55 61 61
36 40 42 40 38 38 41 42 42 42 41 39 36 25 13 6 5 4 4 4 3 3 3 3 3 3 3 3 3 3 3 3 2 2 3 3 3 3 3 3 3 3 3 2 3 2 3 3 3 3 3 3 4 4 5 5 6 7 8 10 11 12 13 14 16 16 16 16 16 15 15 15 15 14 14 13 13 12 11 12 13 20 34 50 60
40 43 44 42 39 39 42 44 44 45 45 44 39 31 19 9 5 4 4 4 4 4 3 3 3 3 3 3 3 3 3 3 3 3 3 3 3 3 3 3 3 3 3 3 3 3 3 3 3 3 3 3 3 3 4 4 5 6 7 8 9 10 11 13 14 15 16 16 16 17 16 16 15 15 15 14 14 13 12 11 10 11 16 28 45
42 46 47 44 41 40 43 45 46 47 49 48 42 36 25 12 6 5 4 4 4 4 4 3 3 3 3 3 3 3 3 3 3 3 3 3 3 3 3 3 3 3 3 3 3 3 3 3 3 3 3 3 3 3 3 3 4 4 5 6 7 8 9 11 12 13 14 15 16 17 17 17 16 16 16 15 15 14 14 13 11 11 10 12 22
43 47 48 46 43 42 43 45 46 48 50 50 46 40 31 18 9 6 4 4 4 4 4 3 3 3 3 3 3 3 3 3 3 3 3 3 3 3 3 3 3 3 3 3 3 3 3 3 3 3 3 3 3 3 3 3 3 4 4 5 6 7 8 9 11 12 12 14 15 16 17 17 17 17 17 16 16 15 14 14 14 12 12 11 12
47 48 50 46 44 43 44 46 47 49 51 50 48 46 38 26 14 7 5 4 4 4 4 4 3 3 3 3 3 3 3 3 3 4 4 3 3 3 3 3 3 3 3 3 3 3 3 3 3 3 3 3 3 3 3 3 3 3 4 4 5 5 7 8 9 10 11 12 13 14 15 16 17 18 18 17 16 16 15 15 15 14 13 13 13
54 52 52 48 45 45 46 47 48 50 51 50 49 49 44 35 20 10 6 5 4 4 5 4 4 3 3 3 3 3 3 4 4 4 4 4 4 3 3 3 3 3 3 3 3 3 3 3 3 3 3 3 3 2 3 3 3 3 3 4 4 4 5 6 7 9 10 11 12 12 13 14 16 17 18 18 17 16 16 15 15 15 15 14 14
60 59 56 51 48 47 48 49 50 51 52 51 51 50 47 40 28 15 8 6 4 4 4 5 4 4 4 3 4 3 3 3 3 4 4 4 4 4 4 3 3 3 3 3 3 3 3 3 3 3 3 3 3 3 3 3 3 3 3 3 4 4 4 5 6 7 8 10 11 11 12 12 13 15 16 17 17 16 16 16 16 15 15 15 15
62 63 60 53 49 49 49 51 53 54 54 53 52 51 47 42 34 23 12 7 5 4 4 5 5 4 4 4 4 4 3 3 3 3 4 4 4 4 4 4 4 3 3 3 3 3 3 3 3 3 3 3 3 3 3 3 3 3 3 3 3 4 4 4 4 5 6 7 8 10 11 11 11 13 14 16 16 16 15 16 16 15 15 15 16
63 64 62 55 50 51 50 52 55 56 55 54 54 51 46 42 38 29 16 9 7 5 4 4 5 5 4 4 4 4 4 3 3 3 3 4 4 4 4 4 4 4 3 3 3 3 3 3 3 3 3 3 3 3 3 3 3 3 3 3 3 3 4 4 4 4 5 5 6 7 8 10 10 11 12 14 14 15 15 15 15 15 14 15 16
66 64 61 55 53 54 54 53 56 57 56 55 54 51 46 41 39 34 23 12 8 6 5 4 5 5 5 5 4 4 4 4 3 3 3 3 3 4 4 4 4 4 4 4 3 3 3 3 3 3 3 3 3 3 3 3 3 3 3 3 3 3 3 3 4 4 4 4 5 5 6 7 8 9 9 11 12 13 14 14 15 15 14 14 15
69 65 60 55 55 58 56 54 57 58 57 56 54 51 47 42 39 37 29 17 10 7 7 5 5 5 5 5 5 4 4 4 4 3 3 3 3 3 3 3 4 4 4 4 4 3 3 3 2 3 3 2 3 3 2 3 3 3 3 3 3 3 3 3 3 3 3 3 4 4 5 5 6 7 8 8 9 11 12 12 13 14 14 14 14
70 66 58 54 57 60 57 56 58 59 58 57 55 52 49 44 40 38 33 23 13 8 7 7 5 5 5 5 5 5 4 4 4 4 4 4 3 3 3 3 4 3 3 4 4 4 3 3 3 2 2 2 2 3 2 2 3 3 3 3 3 3 3 3 3 3 3 3 3 3 3 4 4 5 6 7 7 8 9 10 11 13 14 14 14
68 63 58 55 59 62 59 58 58 58 59 58 56 54 50 46 42 39 36 27 16 10 8 8 7 5 5 5 5 5 5 4 4 4 4 4 3 3 3 3 3 4 4 3 3 3 3 3 3 2 2 2 2 2 2 2 2 2 2 2 3 3 3 3 3 2 2 2 3 3 3 3 3 4 4 5 6 6 7 8 10 11 12 13 14
67 61 58 56 60 62 59 59 59 58 59 59 57 55 52 48 44 40 37 31 20 12 9 8 8 7 5 5 5 5 5 5 4 4 4 4 4 3 3 3 3 3 3 3 3 3 3 3 3 3 3 2 2 2 2 2 2 2 2 2 3 3 3 3 3 2 2 2 2 2 3 3 3 3 3 4 4 5 6 7 8 9 10 11 12
66 62 58 58 61 62 59 60 60 58 59 60 59 56 53 49 46 42 39 34 25 16 11 9 8 8 6 5 5 5 5 5 5 4 5 4 4 4 3 3 3 3 3 3 3 3 3 3 3 3 3 2 2 2 2 2 2 2 2 2 2 3 3 3 3 2 2 2 3 3 3 3 3 3 3 3 4 4 4 5 6 7 8 9 10
64 62 59 62 65 62 59 60 61 59 59 60 61 59 55 50 46 43 41 38 30 19 12 10 8 9 8 6 5 5 5 5 5 5 5 5 4 4 4 4 3 3 3 3 3 3 3 3 3 3 3 3 3 3 2 2 2 2 2 2 2 3 3 3 3 2 3 3 3 3 3 3 3 3 3 3 3 4 4 4 4 5 6 7 8
63 62 62 67 69 65 62 62 61 59 59 61 62 61 58 52 48 45 43 41 36 24 13 10 9 8 10 9 6 5 5 5 5 5 5 5 5 5 4 4 4 3 3 3 3 3 3 3 3 3 3 3 3 3 3 2 2 2 2 2 3 3 3 3 3 2 2 3 3 3 3 3 3 3 3 3 3 4 4 4 4 4 4 5 6
64 62 65 72 72 68 66 64 61 59 58 61 64 64 61 56 51 47 44 42 40 30 16 11 9 8 9 11 8 6 5 5 5 5 5 5 5 5 5 4 4 4 3 4 3 3 3 3 3 3 3 3 3 3 3 2 2 2 2 2 2 2 2 2 3 3 2 3 3 3 3 3 3 3 3 3 3 3 4 4 3 3 3 4 4
65 65 71 76 74 70 68 65 61 59 59 63 67 68 66 60 54 50 46 43 43 37 22 12 10 9 8 11 11 8 6 5 5 5 5 5 5 5 5 4 4 4 4 4 3 3 3 3 3 3 3 3 3 3 3 3 3 2 2 2 2 2 3 2 2 3 2 3 3 3 3 3 3 3 3 3 3 3 3 3 3 3 3 3 3
68 72 79 80 76 71 67 63 61 60 61 66 71 73 71 65 59 53 48 45 45 44 31 15 11 10 8 9 11 10 8 5 5 5 5 5 5 4 5 5 4 4 4 4 4 3 3 3 3 3 3 3 3 3 3 3 3 2 2 2 2 2 2 2 2 2 2 3 3 3 3 3 3 3 3 3 3 3 3 3 3 2 3 3 3
75 80 83 81 76 71 66 62 61 60 63 70 75 77 75 70 64 56 52 48 46 48 39 21 12 12 9 8 10 12 10 7 5 6 5 5 5 4 5 5 5 5 4 4 4 4 4 3 3 3 3 3 3 3 3 3 3 3 2 2 2 2 2 2 2 2 3 3 3 3 3 3 3 3 3 3 3 3 3 3 3 2 2 3 3
83 86 83 79 73 69 65 63 61 60 63 71 77 80 80 77 71 62 56 52 48 49 45 28 15 13 12 10 10 12 12 9 6 6 5 5 5 5 4 5 5 5 5 4 4 4 4 4 4 3 3 3 3 3 3 3 3 3 3 2 2 2 2 2 2 3 3 3 3 3 3 3 3 3 3 3 3 3 3 3 3 3 3 3 3
90 88 81 75 70 68 67 66 64 63 64 70 76 80 82 81 77 68 60 55 50 49 47 35 19 14 14 12 10 11 13 13 8 6 6 5 5 5 5 4 5 5 5 5 5 4 4 4 4 4 3 3 3 3 3 3 3 3 3 3 2 2 2 2 3 3 3 3 3 3 3 3 3 3 3 3 3 3 3 3 3 3 3 3 3
92 85 77 71 69 70 71 70 69 68 68 70 74 78 81 82 80 73 63 57 52 49 48 40 24 16 16 15 12 11 12 14 12 7 6 6 5 5 6 5 4 4 5 5 5 5 4 4 4 4 4 3 3 3 3 3 3 3 3 3 3 3 2 2 2 2 3 3 3 3 3 3 3 3 3 3 3 3 3 3 3 3 3 3 3
88 80 74 71 71 73 73 73 74 74 72 73 75 79 82 83 82 77 67 59 54 49 48 44 29 18 16 16 15 12 11 14 15 11 7 6 6 5 5 6 5 4 5 5 5 5 5 5 4 4 4 4 3 3 3 3 3 3 3 3 3 3 3 2 2 2 3 3 3 3 3 3 3 3 3 3 3 3 3 3 3 3 3 3 3
80 75 73 72 73 75 76 77 78 78 78 77 79 82 85 86 85 81 71 62 56 50 48 45 33 21 17 18 17 15 12 13 16 15 10 6 6 6 5 5 6 5 5 5 4 5 5 5 5 4 4 4 4 4 3 3 3 3 3 3 3 3 3 3 2 2 2 3 3 3 3 3 3 3 3 3 3 3 3 3 3 3 3 3 3
75 74 73 74 76 79 81 82 82 81 82 82 84 87 90 91 90 85 75 65 58 51 47 45 36 24 19 19 19 18 15 13 15 17 14 8 6 7 6 5 6 6 5 5 4 4 5 5 5 5 4 4 4 4 4 3 3 3 3 3 3 3 3 3 3 3 2 3 3 3 3 3 3 3 3 3 3 3 3 3 3 3 3 3 3
74 73 73 76 81 85 86 86 85 84 84 86 88 91 94 95 94 89 79 68 59 52 47 44 37 26 21 20 20 20 18 15 14 16 17 13 7 6 7 6 5 6 5 5 5 4 4 5 5 5 5 5 4 4 4 4 3 3 3 3 3 3 3 3 3 3 3 2 3 3 3 3 3 3 3 3 3 3 3 3 3 3 3 3 3
74 74 76 80 86 90 90 88 87 85 84 87 90 92 95 97 97 94 84 69 57 51 47 44 37 27 22 22 21 21 20 17 15 15 18 17 11 7 7 6 5 5 6 5 5 5 5 4 5 5 5 5 5 4 4 4 4 4 4 3 3 3 3 3 3 3 3 3 3 3 3 4 4 3 4 3 3 3 3 3 3 3 3 3 3
77 78 81 84 88 91 91 88 87 85 84 87 90 92 95 97 98 97 88 71 56 48 45 44 38 28 24 23 22 23 23 20 18 16 16 19 16 10 7 7 6 6 5 6 5 5 5 5 4 5 5 5 5 5 4 4 4 4 4 3 4 3 3 3 3 4 4 3 3 3 3 3 3 4 4 4 3 3 3 3 3 3 3 3 3
80 81 83 86 88 89 89 87 86 86 85 85 88 90 93 96 98 98 91 74 56 46 43 43 40 30 24 25 24 25 25 23 21 18 16 18 19 14 9 6 6 6 5 6 6 5 5 5 4 5 5 5 5 5 5 4 4 4 4 4 3 3 3 3 3 3 4 4 3 3 3 3 3 3 4 4 4 4 3 3 3 3 4 4 3
86 84 84 85 86 86 86 86 85 85 85 85 86 88 91 94 96 97 92 76 57 44 39 40 40 31 25 26 26 26 27 26 24 21 18 17 19 18 13 7 6 7 6 5 6 6 5 5 5 5 5 5 5 5 6 6 4 4 4 4 4 4 3 4 3 3 4 4 4 4 3 3 3 3 3 4 4 4 3 3 3 3 4 4 3
90 87 84 84 84 84 84 85 84 83 84 84 85 86 88 92 95 95 90 75 56 42 35 36 38 33 26 26 27 27 29 29 27 24 21 18 18 19 17 11 7 6 6 5 6 6 6 6 5 5 5 5 5 5 5 6 6 5 4 4 4 4 3 4 4 4 3 4 4 4 4 4 3 3 3 3 4 4 4 4 3 3 3 3 3
90 86 84 83 83 82 82 83 82 82 82 83 83 84 85 88 91 91 85 70 53 40 32 32 35 32 27 27 27 28 30 31 30 27 24 20 18 18 19 16 10 6 6 6 5 6 6 6 6 5 5 5 5 5 5 5 6 6 5 4 4 4 4 4 3 4 4 4 4 4 4 5 4 4 3 3 3 4 4 4 4 4 3 3 3
89 86 84 82 81 79 79 79 79 80 80 81 82 83 84 85 87 87 80 64 48 38 30 28 31 31 28 27 28 28 30 32 32 30 27 23 20 18 18 18 14 8 6 6 6 5 6 6 6 6 6 5 5 5 5 5 5 6 6 6 5 4 4 4 4 4 4 4 4 4 4 4 5 4 4 4 3 3 3 4 4 4 4 4 4
87 86 85 82 79 76 75 74 75 77 78 80 82 83 83 82 82 83 76 58 42 35 29 26 28 29 28 28 28 29 30 32 32 32 30 27 23 19 18 19 17 12 7 6 6 6 5 6 6 6 6 6 5 5 5 5 5 5 6 6 6 5 4 4 4 4 4 4 4 4 4 4 4 5 5 5 4 4 4 3 3 4 4 4 4
85 85 84 80 77 75 72 71 72 74 76 78 80 82 82 79 77 78 69 51 37 32 28 24 26 28 28 27 28 29 30 32 32 32 32 29 26 22 20 19 19 16 10 7 7 6 6 6 6 6 6 6 6 6 6 5 5 5 5 6 7 6 5 4 4 4 4 4 4 4 4 4 4 4 5 5 5 5 5 4 4 3 4 4 4
82 81 81 78 75 74 72 69 70 71 73 76 77 79 79 76 73 72 62 44 33 30 27 24 25 27 27 27 27 29 31 33 32 31 32 32 29 25 22 20 19 18 14 9 7 7 6 5 6 6 6 6 6 6 6 6 6 5 5 5 6 7 7 5 5 4 4 4 4 4 4 4 4 4 4 5 5 5 5 5 5 5 4 4 4
79 76 77 75 73 73 71 68 68 69 71 73 74 75 76 73 71 67 54 38 30 29 26 24 25 26 26 26 26 28 31 33 34 32 32 33 31 28 25 22 21 19 17 13 8 7 7 6 6 6 6 6 6 6 6 6 6 6 6 6 5 6 7 7 6 5 5 5 5 5 4 4 4 4 4 4 4 5 5 5 5 5 5 5 5
76 73 72 71 71 71 69 66 65 66 68 70 71 72 72 70 67 61 46 33 28 27 25 24 25 25 25 25 25 27 30 33 35 34 33 33 33 30 27 24 22 21 19 16 11 8 8 7 6 6 6 7 6 6 6 6 7 6 6 6 6 6 6 7 7 6 5 5 5 5 5 5 5 5 5 4 4 4 5 5 5 5 5 5 6
74 70 67 66 66 67 66 64 62 62 64 65 66 67 66 65 61 52 38 29 27 26 24 23 24 25 25 24 24 25 28 32 35 36 36 35 34 32 30 27 25 22 20 18 14 10 8 8 8 6 6 7 7 7 6 6 7 7 7 6 6 6 6 6 7 7 7 6 5 5 5 5 5 5 5 5 5 5 5 5 5 5 5 5 5
71 67 63 61 61 62 63 61 58 58 58 59 61 61 60 58 53 42 32 27 27 26 24 23 24 24 24 23 23 24 27 31 34 36 38 38 36 33 31 30 28 26 22 20 17 13 9 8 8 7 7 7 7 7 7 6 7 7 8 7 7 6 6 6 6 7 8 7 6 5 5 5 5 5 5 5 5 5 5 5 5 5 5 5 5
66 63 59 56 56 57 58 56 54 53 52 53 55 55 52 50 43 33 27 26 26 25 24 23 23 23 23 22 22 22 24 28 31 34 37 40 39 37 34 32 32 31 28 24 21 17 12 8 8 9 8 7 7 7 7 7 7 7 8 8 7 7 7 6 7 7 7 8 8 7 6 5 5 5 5 5 5 5 5 5 5 5 5 5 5
61 58 56 53 52 53 53 50 48 47 46 46 48 47 44 40 34 28 25 26 25 24 23 22 22 23 22 21 21 20 22 24 28 30 34 37 39 39 37 35 33 33 33 29 25 21 16 10 8 9 9 8 7 7 7 7 7 7 7 8 8 8 7 7 7 7 8 8 8 8 7 7 6 5 5 5 5 5 5 5 6 5 5 5 5
55 54 53 51 49 48 47 44 41 41 39 39 39 38 34 30 27 25 25 25 24 23 22 22 23 23 22 21 21 20 21 22 25 27 29 33 37 39 39 37 35 34 34 33 30 26 21 14 9 8 10 9 8 7 8 8 8 7 7 7 8 9 9 8 7 7 8 9 9 9 9 8 7 6 5 5 5 5 5 5 5 5 5 5 5
49 50 51 50 46 43 40 36 34 33 32 30 30 29 26 24 24 24 24 24 24 22 22 22 24 23 22 21 21 21 21 22 24 25 26 28 33 37 39 40 38 36 36 35 33 30 26 20 12 8 9 10 9 8 8 8 8 8 7 7 8 9 9 9 8 8 8 8 9 10 10 9 9 9 7 6 6 5 5 5 5 5 5 5 5
Wind_Speed
96 96 96 96 97 98 99 98 97 94 89 81 74 68 60 52 46 43 41 40 38 39 43 47 50 53 55 58 62 66 70 74 77 80 84 87 91 93 96 100 103 105 108 111 115 118 121 123 125 128 130 132 134 135 136 137 138 139 140 141 143 144 146 148 150 151 152 154 156 157 158 159 158 157 156 153 150 146 145 145 146 145 143 141 140
98 99 99 98 98 98 99 100 98 97 94 87 78 72 66 59 52 46 42 41 40 39 39 42 46 49 51 54 57 59 63 67 72 75 79 83 87 89 92 95 98 100 102 105 109 113 117 120 123 125 127 129 131 134 136 137 138 139 140 141 142 143 145 147 148 150 150 152 153 155 157 158 159 159 158 156 152 150 148 148 148 148 146 145 143
100 102 102 101 101 100 100 100 100 99 97 92 84 76 69 63 57 51 46 42 41 40 39 39 41 44 48 51 52 55 58 62 66 70 73 77 81 85 88 91 93 96 98 101 104 108 112 116 120 122 125 127 129 131 134 136 138 139 140 141 141 142 144 145 147 149 150 150 151 153 154 156 158 159 158 157 155 153 152 150 150 150 150 148 147
101 103 104 103 103 103 102 101 100 100 98 95 89 81 74 67 62 56 51 47 43 41 40 38 38 39 44 48 50 51 54 58 61 64 67 71 75 79 83 87 90 93 95 98 100 104 108 112 116 119 122 124 126 128 131 133 136 138 140 140 141 142 143 145 146 147 148 150 150 151 152 153 155 156 157 157 156 155 154 152 151 152 152 152 150
102 104 105 105 104 105 105 104 102 101 101 99 94 87 79 72 66 60 54 50 47 44 41 39 37 37 39 43 46 48 51 54 56 59 63 66 69 73 77 82 85 89 92 94 97 101 104 108 111 114 117 120 123 126 128 130 133 136 138 140 141 142 143 144 145 147 148 149 150 150 151 152 153 154 155 156 156 156 155 153 153 153 153 153 153
103 105 106 106 106 106 107 107 106 104 103 102 98 90 82 75 69 63 58 53 49 46 43 40 37 36 37 39 42 44 47 50 52 55 59 63 66 69 72 76 79 83 87 90 93 96 100 103 106 108 111 115 119 122 126 129 131 133 135 138 140 142 143 144 145 146 147 148 149 150 150 151 151 152 153 154 154 155 154 153 153 153 153 154 154
104 105 106 107 107 108 109 110 109 107 106 104 101 94 86 78 71 66 60 55 52 49 46 42 38 36 36 37 38 40 43 46 48 51 55 59 64 66 69 71 74 77 81 85 88 91 95 99 102 104 106 110 113 117 121 125 128 130 132 135 138 140 142 144 145 146 147 148 149 150 151 151 151 152 152 152 153 153 153 152 152 152 152 153 154
104 105 107 108 108 109 110 111 111 109 108 106 102 97 90 81 73 68 62 58 54 51 49 45 40 36 35 35 36 37 39 42 44 47 50 54 59 63 66 69 70 72 76 80 84 87 90 94 98 101 103 106 109 112 115 119 123 127 130 132 135 138 140 143 145 146 147 148 148 150 151 151 152 152 152 152 152 152 151 151 151 151 151 151 152
103 105 106 108 108 110 111 112 112 111 109 106 104 101 94 85 78 71 65 60 55 52 50 48 44 39 35 33 33 35 37 38 41 43 47 50 53 57 61 65 68 70 72 76 80 83 86 89 92 96 99 102 105 108 111 114 117 122 125 129 132 135 138 140 143 145 146 147 148 149 150 151 152 153 153 153 152 151 150 150 149 150 149 149 150
104 105 106 107 108 110 111 112 112 111 110 107 106 105 100 92 82 74 68 62 57 53 51 49 47 44 39 35 32 32 34 35 38 40 43 46 50 52 55 60 64 66 69 72 75 78 82 85 88 91 94 97 101 104 107 110 113 116 120 124 128 132 135 138 140 143 146 146 147 149 149 150 152 153 154 154 153 152 151 150 149 149 148 148 148
103 106 107 107 108 110 112 113 112 111 110 108 107 107 104 98 88 79 72 66 60 55 51 49 48 46 43 39 35 32 31 32 34 37 40 43 46 48 51 54 58 62 65 68 71 75 78 80 83 86 89 92 96 100 103 106 109 112 115 118 123 127 131 135 138 141 144 146 147 148 148 149 151 152 153 154 154 153 152 151 150 149 148 147 147
103 106 107 108 109 110 112 113 113 112 110 109 108 107 106 102 94 86 78 71 64 59 53 50 47 46 45 43 39 35 32 30 30 32 36 39 42 45 48 50 53 56 60 63 67 70 74 77 80 82 85 88 91 95 99 102 105 108 111 114 118 121 125 130 134 137 140 143 146 147 148 148 149 151 152 154 155 154 153 152 152 150 149 147 147
101 105 107 108 109 110 112 113 113 113 111 110 109 108 106 103 99 91 82 74 68 62 56 52 49 46 45 43 41 38 35 32 30 30 31 34 37 40 43 47 49 52 54 58 61 65 69 73 76 79 81 84 87 91 94 98 101 104 107 111 114 117 121 125 129 132 136 140 143 145 147 148 148 149 151 153 154 154 154 153 153 152 150 149 148
101 103 106 107 109 110 112 113 114 113 113 111 110 108 106 104 102 96 87 79 72 66 61 55 51 48 46 44 42 40 37 34 31 30 29 31 33 36 39 42 45 48 50 53 56 60 63 67 72 76 79 81 83 87 90 94 97 100 103 107 111 114 117 120 124 127 131 135 138 142 145 146 147 148 149 151 152 153 153 153 153 153 152 150 149
100 103 105 107 109 111 112 113 114 114 113 113 111 109 107 105 104 100 93 84 77 70 65 59 54 49 46 44 43 41 39 37 34 32 30 30 31 32 35 38 41 43 46 49 52 56 59 63 67 71 75 79 81 84 86 89 93 96 99 102 106 110 114 117 121 123 126 130 134 137 140 143 145 146 147 148 149 150 151 151 152 152 152 150 150
100 102 105 107 109 112 113 114 114 115 114 114 113 111 109 107 105 103 98 90 81 74 69 63 58 52 48 45 43 42 40 39 36 35 33 31 31 31 32 35 37 39 42 46 49 53 56 59 62 66 70 74 78 81 83 85 88 91 94 97 101 105 110 114 118 121 123 125 129 132 135 137 140 142 144 145 146 148 149 149 149 150 151 150 150
99 102 104 107 109 112 113 114 115 115 115 115 114 112 110 109 106 104 101 94 86 78 73 68 62 57 51 47 44 43 41 40 38 36 35 34 32 31 31 32 35 37 40 43 46 49 52 54 57 61 65 69 73 77 80 82 85 87 89 93 97 101 105 110 115 118 118 121 123 126 128 131 134 136 139 141 143 144 145 146 147 148 148 149 149
99 102 104 106 109 111 113 114 115 116 116 115 115 114 112 110 108 106 103 98 90 82 76 72 67 61 56 51 47 44 42 41 39 38 36 35 34 31 30 30 32 35 38 41 43 45 47 50 53 56 60 64 68 72 76 79 82 84 86 89 93 97 101 106 110 112 112 114 118 120 121 124 126 130 133 135 138 140 141 142 144 145 146 147 148
99 102 104 107 108 111 112 113 114 115 116 116 115 114 113 111 110 107 104 100 95 87 80 75 70 65 60 54 50 46 44 42 40 39 38 37 35 34 32 30 30 32 35 38 41 43 44 45 48 52 55 59 62 66 70 74 78 80 82 84 87 90 94 99 104 105 105 107 111 114 116 118 121 124 126 129 132 135 137 138 140 142 144 144 145
99 102 104 107 109 111 112 113 114 115 115 115 116 115 114 113 111 109 106 103 98 92 85 78 72 68 64 58 53 48 45 42 41 40 39 38 37 36 34 32 31 31 32 34 38 41 43 43 44 47 50 54 58 61 64 68 72 75 78 80 83 85 89 93 97 98 98 102 105 108 111 114 116 119 121 123 126 129 132 135 137 139 140 142 143
99 102 105 107 109 111 112 112 114 115 115 115 116 116 116 114 112 110 108 105 101 95 88 81 75 71 67 63 57 51 47 43 41 40 39 38 37 36 36 35 34 33 32 32 34 37 40 42 42 43 45 49 53 57 60 62 65 69 73 76 79 82 85 89 91 91 92 96 100 103 106 109 112 115 118 119 121 124 128 131 133 135 136 138 139
99 102 104 107 109 111 112 113 114 115 114 115 115 116 116 115 114 112 110 107 103 98 91 85 78 73 70 66 61 56 50 45 42 40 38 38 37 36 35 35 35 34 34 33 33 34 36 39 40 41 42 45 48 52 56 59 61 64 68 72 75 78 81 84 86 86 87 90 94 97 101 104 107 110 113 116 118 121 124 128 129 130 131 132 135
99 101 104 107 109 111 112 113 114 114 114 114 115 116 117 116 115 113 111 108 105 100 94 88 81 76 72 68 65 60 54 48 44 40 38 37 37 36 35 34 34 34 34 34 34 34 34 35 37 39 40 42 45 48 52 55 58 61 64 67 71 74 78 80 82 83 83 84 87 91 95 99 102 104 107 110 114 117 121 125 126 126 126 128 129
99 102 105 107 109 111 111 112 113 113 113 114 116 117 117 117 117 115 112 109 107 103 97 91 84 78 73 70 67 63 58 52 47 43 39 36 35 35 35 34 33 33 33 33 34 34 34 34 34 36 38 40 42 45 48 51 55 58 61 64 67 70 73 76 78 79 80 81 83 85 89 93 97 99 102 105 109 113 117 121 122 123 123 124 125
100 102 105 107 110 111 111 111 112 112 113 115 116 117 118 118 118 116 114 111 108 105 100 94 87 81 76 72 68 66 62 57 51 46 42 38 35 34 34 34 33 32 32 32 32 33 34 34 33 33 35 37 40 42 45 48 51 54 57 60 63 66 68 71 73 75 77 78 80 82 85 87 90 93 97 101 105 108 112 115 117 118 118 119 121
100 103 105 108 110 111 111 111 111 111 112 115 117 118 119 120 119 118 116 113 110 106 101 96 90 85 79 74 70 67 65 61 55 50 45 41 37 34 32 33 33 32 32 31 31 31 32 33 34 33 33 34 37 40 43 45 47 50 53 56 59 61 64 66 68 71 73 75 77 79 81 82 84 88 92 97 101 104 107 110 111 113 115 116 118
100 103 106 108 110 111 112 112 112 112 113 115 117 118 120 121 121 119 117 114 111 107 103 97 92 87 82 77 72 69 66 63 60 54 49 45 41 37 33 31 32 32 32 31 30 30 31 32 33 33 33 32 34 37 40 43 45 47 50 52 54 57 59 62 64 66 69 72 74 76 77 78 80 83 87 92 96 99 102 104 106 108 111 113 115
101 104 107 109 110 110 111 112 113 114 115 116 117 118 120 121 122 121 118 115 112 108 103 99 94 89 85 80 75 71 68 65 62 58 53 48 44 41 38 34 31 30 31 31 31 30 30 31 32 33 33 33 32 34 37 40 42 45 47 49 51 53 55 57 60 63 65 68 70 72 74 76 77 79 83 87 91 94 97 99 101 104 107 109 111
102 105 108 109 109 110 111 113 114 116 117 117 118 119 120 121 122 121 119 116 113 109 104 99 95 90 87 83 78 73 70 67 64 60 56 52 47 43 41 38 34 31 29 29 30 30 29 29 30 31 32 33 32 33 35 37 40 42 44 46 48 50 52 54 56 59 62 64 67 69 71 73 75 76 79 82 86 90 93 95 97 100 103 105 107
103 106 108 108 109 111 112 114 116 117 118 119 119 120 120 121 122 122 120 117 113 109 104 100 95 91 87 84 81 76 71 68 65 62 58 55 51 46 42 40 37 34 31 28 28 29 29 29 29 30 31 32 32 32 33 34 37 40 42 44 45 47 49 51 53 55 58 61 64 67 69 71 72 74 75 78 82 86 89 92 94 96 98 100 103
104 106 107 109 110 111 113 115 117 118 120 120 120 121 121 121 122 122 121 118 114 110 105 100 95 91 87 84 82 79 74 70 67 64 61 57 53 50 46 42 39 37 34 31 28 26 27 28 28 28 29 30 32 32 32 32 34 37 39 41 43 45 46 48 50 52 54 57 60 63 66 69 71 73 73 75 78 81 85 88 91 92 94 96 98
104 106 107 109 111 113 115 116 118 119 120 121 121 122 122 122 122 122 121 119 115 110 105 100 95 91 88 85 82 80 76 72 68 66 63 59 55 52 48 45 41 38 36 34 31 28 26 26 27 28 27 28 30 32 32 32 32 34 37 39 40 42 44 46 47 49 51 54 57 60 63 66 69 71 72 73 74 77 81 84 87 89 91 93 95
105 107 109 111 113 115 116 117 118 119 120 121 122 122 122 122 123 123 122 119 115 110 104 100 95 91 87 84 82 80 77 74 70 67 64 61 58 54 51 47 44 41 38 35 33 31 28 26 26 27 27 27 27 29 31 32 32 32 34 36 38 40 42 43 45 47 49 51 53 56 59 62 65 68 71 72 73 74 76 80 83 86 88 90 92
106 108 110 112 114 116 117 118 119 119 120 121 121 121 122 122 122 122 122 119 114 109 104 99 95 91 87 84 82 80 78 75 71 68 65 63 59 56 53 50 46 43 40 37 35 33 31 28 25 25 26 27 27 27 28 31 32 32 31 33 36 38 39 41 43 44 46 48 50 53 56 59 62 64 67 70 72 73 74 76 79 82 84 86 88
108 109 111 113 115 116 118 118 119 120 120 120 121 121 121 121 121 122 122 119 115 109 103 98 94 90 87 84 82 79 78 76 73 70 66 63 61 57 54 51 48 45 42 40 37 35 33 31 28 25 24 25 26 27 27 28 30 32 31 31 32 35 37 39 40 42 44 46 48 50 52 55 58 61 64 66 69 71 72 73 75 78 81 83 84
109 111 113 114 116 117 118 119 120 120 121 120 121 121 121 120 120 120 121 119 114 108 102 97 93 89 86 84 81 79 78 76 74 71 67 64 61 59 55 52 49 46 44 41 39 37 35 33 30 28 26 24 24 25 26 27 28 29 31 31 31 32 34 36 38 40 41 43 46 48 50 52 55 57 60 63 66 68 70 71 73 74 76 79 81
110 112 114 115 116 118 119 120 120 121 121 120 120 120 120 120 119 119 119 117 113 107 101 95 91 89 86 83 81 79 77 76 74 72 69 65 62 60 57 54 50 47 44 42 40 38 36 35 33 30 27 26 25 24 24 25 27 28 29 31 31 31 32 33 36 38 40 41 42 45 47 49 51 54 57 59 62 65 67 69 70 72 74 76 78
112 113 115 116 117 118 119 120 121 121 121 120 120 120 119 118 118 118 117 116 111 106 99 93 90 88 85 82 80 78 77 76 74 72 70 67 63 60 58 56 52 48 45 42 40 38 37 36 35 33 29 27 26 25 24 23 25 27 28 29 30 31 32 32 33 35 37 39 40 42 44 47 49 51 53 56 59 61 63 65 67 69 72 73 75
113 115 116 117 118 119 120 121 122 122 121 121 120 119 118 117 116 116 116 114 109 104 98 92 88 86 84 81 79 77 76 75 74 72 71 68 65 62 59 57 54 51 47 43 41 39 37 36 35 34 32 29 27 26 25 24 23 24 26 27 28 29 31 31 32 33 34 37 38 39 41 43 46 48 51 53 55 57 59 62 64 66 68 70 71
115 116 118 119 119 120 121 122 122 122 122 121 120 119 117 115 114 114 114 111 107 102 97 90 86 85 83 81 79 76 75 74 73 72 71 69 67 64 60 57 55 53 50 46 42 39 37 36 34 33 33 31 28 26 26 25 24 23 24 26 27 28 29 30 31 32 33 34 36 38 39 41 43 45 47 50 52 54 56 58 61 63 64 66 68
116 118 119 120 121 121 122 122 122 122 121 120 119 118 116 114 113 112 112 109 104 99 95 89 85 83 82 80 78 76 73 72 72 71 70 70 68 65 62 59 56 54 52 48 45 41 38 36 35 34 32 32 30 27 26 26 25 24 23 24 25 27 28 29 29 31 32 33 34 35 37 39 40 42 44 46 49 51 54 56 58 59 61 62 64
118 119 121 122 122 123 123 122 122 122 121 120 118 117 115 113 111 111 110 106 101 96 92 88 83 82 81 79 77 75 73 71 70 70 69 69 68 66 64 61 58 55 53 50 47 44 41 38 36 34 33 32 31 29 26 25 25 25 24 23 24 25 26 27 28 29 30 32 33 34 35 37 38 40 42 44 46 48 51 53 55 56 58 60 61
120 121 122 123 124 123 123 123 122 121 120 119 117 115 114 112 110 109 108 104 98 93 90 86 82 80 79 78 76 74 72 70 69 69 68 68 67 66 65 63 60 56 53 51 49 46 43 40 37 35 34 32 31 30 28 26 25 25 25 24 24 24 25 26 27 28 29 30 31 33 34 35 36 37 39 41 43 45 48 49 51 53 56 57 59
122 123 123 124 124 124 124 123 122 120 119 117 116 114 112 111 110 108 105 101 95 91 87 84 81 79 77 76 75 73 71 69 69 68 67 67 67 66 64 63 61 59 55 52 50 48 45 42 39 37 35 33 32 31 29 27 25 24 25 25 24 24 24 25 26 27 28 28 30 31 32 34 35 36 37 38 40 42 44 46 48 50 52 55 57
123 124 125 125 124 124 124 122 121 119 117 116 114 113 111 110 108 106 103 97 92 88 85 82 80 78 76 75 73 71 70 68 68 67 66 66 66 66 65 63 62 60 57 53 51 49 47 44 41 39 37 35 33 32 30 29 27 25 24 25 25 24 24 24 25 26 27 27 28 29 31 32 34 35 36 37 38 39 41 43 45 46 48 50 53
125 125 125 125 124 124 123 122 120 118 116 114 112 111 110 108 106 103 99 94 89 86 83 81 79 77 75 74 72 70 68 67 67 66 66 65 65 65 65 64 62 61 59 56 52 49 47 45 43 40 38 36 34 33 31 30 28 26 24 24 25 25 25 24 24 24 26 27 27 28 29 31 32 33 34 35 37 38 39 40 42 43 45 47 49
126 126 126 125 124 123 122 121 119 116 114 112 111 109 108 106 104 100 95 90 86 84 82 79 77 75 74 73 71 69 67 66 65 65 65 65 64 63 64 64 63 62 60 58 54 51 48 46 44 42 40 38 36 34 32 31 29 28 26 24 24 25 26 25 24 24 24 26 27 28 29 29 31 32 33 34 35 37 38 39 40 41 43 44 46
126 127 126 125 124 122 121 119 117 114 112 110 109 108 106 104 100 96 91 86 83 81 80 78 76 74 73 71 70 67 65 64 63 64 64 64 64 63 62 63 63 62 61 60 57 54 50 47 45 43 41 39 38 36 33 31 30 28 27 25 24 24 25 26 25 25 25 25 26 27 28 29 30 31 31 32 33 35 37 38 39 40 41 42 44
127 127 126 125 123 121 119 117 114 112 110 108 107 105 103 100 96 91 87 83 81 80 78 77 75 73 71 70 68 66 64 63 62 62 63 64 64 63 62 61 61 61 61 61 59 56 53 49 46 44 42 40 38 37 36 34 31 29 28 26 25 24 24 25 26 26 26 26 26 26 27 28 29 30 31 31 32 33 35 36 38 39 40 41 42
127 126 126 125 122 120 117 114 112 110 107 105 104 102 99 95 91 87 83 81 79 78 77 76 74 72 70 69 67 66 64 62 60 59 60 61 63 64 63 61 60 60 60 60 60 58 56 52 48 45 43 41 39 37 36 35 34 32 29 27 26 24 24 24 25 26 26 27 27 26 26 26 27 29 30 31 31 32 33 34 35 37 38 40 41
126 125 124 123 120 117 114 111 109 107 105 102 100 98 94 89 85 82 80 78 77 77 76 74 73 71 69 68 66 65 63 61 60 59 58 58 59 61 62 62 61 60 59 59 59 58 57 55 51 47 44 42 41 38 36 34 34 33 31 29 27 26 24 24 24 25 26 27 27 27 27 26 26 27 28 29 30 31 32 33 34 35 36 38 39
Wind_Direction
355 356 357 358 360 0 0 0 1 1 360 357 355 350 345 340 334 329 322 314 304 295 288 283 278 273 269 265 262 260 258 257 256 254 252 251 250 249 248 247 246 245 243 243 243 242 241 240 240 239 239 238 238 237 237 237 238 238 238 238 238 238 239 239 240 240 240 240 240 240 240 241 242 242 242 242 241 239 238 238 240 240 240 240 240
356 357 358 359 360 1 2 1 1 2 1 359 357 354 349 344 339 334 329 322 314 306 296 288 283 278 274 269 265 262 260 258 257 255 252 251 250 249 248 247 247 247 245 243 243 243 242 241 240 239 239 239 238 238 237 237 237 237 238 238 238 238 238 238 239 239 240 240 240 240 240 241 241 242 242 242 242 241 239 238 238 240 240 240 240
356 357 358 359 360 1 2 2 2 3 3 1 358 356 353 348 343 338 334 328 321 314 305 296 288 282 277 272 268 265 262 260 258 256 254 252 251 250 249 248 247 246 246 245 243 242 242 242 241 240 239 238 238 238 237 237 237 237 237 237 237 238 238 238 238 239 239 239 239 240 240 240 241 241 242 242 242 242 241 239 238 239 240 240 240
356 357 358 358 359 0 1 2 3 3 4 3 0 357 355 352 347 342 338 333 329 322 314 305 296 287 280 275 272 267 264 262 260 259 257 256 254 252 250 249 247 246 245 244 244 243 242 241 241 240 239 238 237 237 237 237 237 237 236 236 237 237 238 238 238 238 239 239 239 239 240 240 240 241 241 242 242 242 242 240 239 238 239 240 240
356 356 357 358 359 0 1 2 3 3 3 4 3 360 357 355 351 345 341 337 333 329 323 314 305 296 286 279 275 272 268 265 262 261 259 258 256 254 252 250 249 247 246 244 243 243 243 242 241 240 240 239 238 237 236 237 237 237 237 236 236 236 237 237 238 238 238 239 239 239 239 240 240 240 241 241 241 242 242 241 240 239 238 239 240
355 355 356 357 358 360 1 1 2 3 3 4 4 2 359 356 354 349 344 339 336 333 329 322 314 305 295 285 279 275 272 268 264 261 260 258 257 255 254 252 250 249 248 247 245 243 243 243 243 241 240 240 239 238 237 236 236 236 237 236 236 236 236 236 237 238 238 238 239 239 239 239 240 240 240 240 241 241 241 241 241 240 239 239 239
354 354 355 357 358 359 0 1 2 3 3 3 3 3 1 358 356 353 348 343 339 337 334 329 321 313 304 295 286 279 275 271 268 264 260 258 257 256 255 254 252 251 249 248 247 245 244 243 243 243 242 241 240 239 239 237 236 236 236 236 236 236 236 236 236 237 237 237 238 238 239 239 239 240 240 240 240 240 241 241 241 241 240 239 238
353 354 355 356 357 359 360 1 1 2 3 3 3 4 3 360 357 355 352 348 343 340 337 334 328 320 312 304 294 286 280 275 271 267 263 259 258 257 256 255 254 252 250 249 248 246 245 244 243 243 242 242 241 240 240 239 238 237 236 235 236 236 236 236 236 236 236 237 237 238 238 239 239 239 240 240 240 240 240 240 240 240 240 240 239
352 353 354 355 357 358 359 0 1 1 2 2 2 3 4 2 360 358 356 352 347 343 339 337 333 328 320 313 302 293 286 280 275 271 267 264 260 257 256 256 255 253 251 250 249 248 246 245 244 243 242 242 241 241 240 240 239 238 237 236 236 236 236 236 236 236 236 236 236 237 237 238 238 239 239 239 239 239 239 239 240 240 240 240 239
351 352 353 354 356 358 359 359 360 0 1 1 2 3 3 4 2 360 358 355 351 347 343 340 336 333 328 322 312 300 290 285 280 274 270 267 265 261 258 256 255 254 252 251 250 249 248 247 245 244 243 242 242 241 240 240 239 239 238 238 237 236 236 236 236 236 237 237 236 236 236 237 238 238 239 239 239 239 239 239 239 239 239 239 239
350 351 352 354 355 357 358 359 359 360 0 1 2 3 3 4 4 2 360 358 355 352 347 343 339 336 333 328 321 311 298 288 283 279 274 271 268 265 262 259 257 255 253 252 250 250 249 248 247 245 244 243 242 242 241 240 239 239 239 238 238 237 236 236 236 236 236 237 237 237 236 236 237 238 238 239 239 239 239 239 238 238 239 239 239
350 350 351 353 355 356 357 358 359 359 360 1 2 2 2 3 4 4 2 360 358 355 351 347 343 340 336 331 326 320 309 297 287 281 278 275 272 269 266 264 261 258 255 253 251 250 249 249 248 247 245 243 242 242 241 241 240 239 239 239 238 238 237 237 236 236 236 236 237 237 237 236 236 237 237 238 239 239 238 238 238 238 238 238 238
349 350 350 352 354 356 357 358 358 359 359 0 1 2 2 3 4 5 4 1 360 358 355 351 347 343 339 334 329 325 318 309 297 287 281 277 275 272 270 267 264 261 258 255 253 251 250 249 249 248 247 245 243 242 241 241 240 239 239 239 239 238 238 237 237 236 236 236 236 236 237 236 236 236 236 237 238 238 238 238 238 238 237 237 238
348 349 349 351 353 355 356 357 358 358 359 360 0 1 1 2 3 4 5 3 1 360 358 355 351 346 342 337 333 329 324 317 308 298 289 283 278 275 272 270 267 265 262 259 255 252 250 248 248 248 247 246 245 243 242 241 240 239 239 238 239 239 239 238 238 237 237 237 237 236 236 236 236 236 236 236 237 238 238 238 238 238 238 237 237
347 348 349 350 353 354 356 357 357 358 358 359 359 0 1 2 3 4 4 4 3 1 0 358 354 350 345 341 337 333 329 324 318 310 301 292 286 281 276 273 270 268 265 262 259 255 252 248 247 246 246 246 245 244 243 241 240 239 239 238 238 239 239 239 238 238 237 237 236 237 237 236 236 236 236 236 236 237 237 238 238 238 238 237 237
346 347 348 350 352 354 355 356 357 357 358 358 359 360 1 1 2 3 3 4 4 3 2 0 357 353 349 345 341 336 332 328 324 318 311 303 294 288 283 279 275 271 267 263 261 258 255 252 248 246 245 245 245 244 244 243 242 241 240 239 238 238 239 239 239 238 238 237 237 237 237 237 237 237 237 236 236 236 237 237 237 238 238 238 238
346 346 348 350 352 353 355 356 356 357 357 358 358 359 0 1 2 3 3 3 4 4 3 1 360 357 353 349 345 340 336 331 327 323 317 310 302 295 289 284 281 277 272 267 263 260 259 256 253 249 246 245 244 244 244 243 243 242 241 240 239 238 238 239 239 239 238 238 238 238 238 237 237 237 238 237 237 236 236 237 237 237 238 238 238
345 346 348 350 352 353 354 355 355 356 356 357 358 358 360 0 1 2 2 3 3 4 4 2 1 359 356 352 348 344 340 335 331 327 323 316 309 302 294 289 285 282 278 274 270 265 261 259 256 253 250 246 244 243 243 243 243 242 241 240 239 239 238 239 240 239 239 239 240 240 239 239 239 239 238 238 238 238 237 237 237 237 237 237 238
345 346 348 350 352 353 354 354 355 355 356 356 357 358 359 0 0 1 2 2 2 3 4 3 1 360 359 356 352 348 343 339 335 330 326 322 316 309 302 295 289 285 281 278 275 271 266 261 258 255 253 250 247 245 243 243 243 243 243 242 241 241 241 240 241 241 240 239 240 240 240 240 240 240 239 239 239 239 239 238 237 237 237 237 237
345 346 348 350 351 352 353 354 354 354 355 356 356 357 359 359 0 0 1 1 2 2 3 3 2 1 360 358 355 351 347 343 338 334 329 325 321 315 309 304 297 291 286 281 277 275 272 267 262 257 254 252 250 248 245 244 243 243 243 243 242 242 242 242 242 242 241 240 240 240 240 240 240 240 240 239 240 240 240 239 238 237 237 237 237
345 346 348 350 351 351 352 353 353 354 354 355 356 357 358 359 360 0 0 1 1 1 2 3 3 2 0 359 357 354 350 346 342 338 333 328 324 320 314 309 304 298 292 287 282 277 274 272 267 261 256 253 251 249 247 245 243 242 242 242 242 242 242 242 243 242 241 240 240 240 239 239 239 239 239 239 239 239 240 240 239 238 237 237 237
345 346 348 349 350 351 351 352 353 353 354 355 356 356 357 358 359 360 360 360 0 0 1 1 3 3 1 0 359 356 352 349 346 342 337 332 327 324 319 313 307 302 298 293 289 284 278 274 271 266 260 255 252 250 248 246 244 242 241 241 241 241 242 242 243 242 241 240 240 240 240 239 238 238 238 238 238 238 239 240 239 239 238 237 237
345 346 348 349 349 350 350 351 352 353 354 355 356 356 357 358 358 359 359 359 359 359 360 360 1 2 2 1 359 358 355 351 348 345 341 336 331 327 322 317 311 305 301 297 294 290 285 279 273 269 265 259 255 252 249 247 245 243 241 240 240 240 240 241 242 242 241 241 240 240 240 240 239 238 238 238 238 238 238 239 239 239 238 238 237
345 346 348 348 349 349 350 351 351 352 353 355 356 356 356 357 358 358 359 359 359 359 359 359 359 1 3 2 0 358 356 353 350 348 345 341 336 331 326 322 317 310 305 301 297 294 290 285 278 272 267 263 258 254 251 249 246 244 243 242 241 241 240 240 241 241 241 240 240 239 239 239 240 239 238 238 238 238 238 239 239 239 238 238 237
345 347 347 347 348 348 349 350 351 352 353 355 355 356 356 356 357 358 358 358 358 358 358 358 358 359 1 2 1 359 357 355 352 350 347 344 341 337 331 325 322 317 311 305 301 297 294 291 285 277 270 265 261 258 254 252 249 246 244 243 242 242 242 241 240 240 240 240 239 239 238 238 238 239 239 238 238 237 237 238 239 239 239 238 238
345 346 347 347 347 348 349 350 351 352 354 355 355 356 356 356 356 357 357 357 357 357 357 357 357 357 359 1 1 0 358 356 354 351 349 347 345 343 337 331 326 322 317 310 305 300 297 294 291 285 276 268 264 261 258 254 252 250 248 246 244 243 242 242 241 240 239 239 239 239 239 238 237 237 238 239 239 238 238 238 238 238 238 238 238
345 346 346 346 347 347 348 349 351 352 354 355 355 355 355 355 356 356 356 356 356 356 356 356 356 356 357 359 1 1 359 357 355 353 351 349 347 345 343 338 331 326 322 316 310 305 301 298 294 290 284 275 267 263 260 257 254 252 250 249 247 246 244 243 241 240 239 239 239 239 239 238 237 236 236 237 238 239 238 238 237 237 238 237 237
345 345 345 346 346 347 349 350 351 352 353 354 354 355 355 355 355 355 355 355 355 355 355 355 355 355 356 357 359 0 0 359 356 354 352 350 349 347 345 343 338 331 326 322 316 311 305 301 297 293 289 282 274 266 262 259 257 254 252 250 249 248 247 245 243 241 240 239 238 238 239 238 238 237 236 236 237 238 239 238 237 237 237 237 237
345 344 345 345 346 347 349 350 351 351 352 353 354 354 354 354 354 354 354 354 354 354 354 354 354 354 354 355 356 359 0 359 357 356 353 351 350 349 347 344 342 338 332 326 321 315 309 303 299 295 291 287 280 272 266 262 259 256 253 251 249 248 248 247 245 243 241 239 238 238 238 238 238 237 237 236 236 237 238 238 238 237 237 236 236
344 344 344 345 346 348 349 349 350 351 351 352 352 353 353 353 353 353 353 353 354 353 353 353 353 353 354 354 354 356 359 360 358 357 355 353 350 349 348 346 344 342 337 331 325 319 314 308 302 298 294 290 286 279 271 265 262 259 256 253 250 249 248 247 246 245 243 241 239 238 238 237 238 237 237 237 237 237 237 237 237 237 237 236 236
343 344 344 345 346 347 348 349 349 350 350 351 351 351 352 352 352 352 352 352 353 353 352 352 352 352 353 353 353 354 356 359 359 357 356 354 352 349 349 347 345 344 341 336 329 324 318 312 306 300 296 292 289 284 278 270 265 261 259 256 252 250 248 247 247 246 245 243 241 239 238 238 237 237 237 236 236 237 237 237 237 236 236 236 236
343 343 344 345 346 347 348 348 348 349 349 349 350 350 350 350 351 351 351 351 351 352 351 351 352 352 352 352 352 352 354 356 358 358 356 355 353 351 349 348 346 345 343 339 334 328 323 317 311 304 298 293 290 287 283 276 269 264 261 258 255 252 249 247 246 246 245 244 242 240 240 239 238 238 237 236 235 236 237 237 238 237 236 236 235
343 343 344 345 346 346 346 347 347 347 348 348 348 349 349 349 349 350 350 350 350 351 350 350 351 351 351 351 351 351 352 354 356 358 357 355 354 352 350 348 347 345 344 342 338 333 327 322 316 310 304 298 293 288 285 281 275 268 263 260 258 255 252 249 247 246 245 244 243 241 240 239 239 239 239 238 236 235 235 236 237 238 237 237 236
342 343 344 344 345 345 345 345 346 346 347 347 347 347 348 348 348 348 349 349 349 350 350 349 349 350 350 350 350 350 351 352 354 356 357 356 355 353 351 349 347 345 344 342 341 338 332 326 321 315 308 302 296 291 286 283 280 274 267 262 259 257 254 252 249 247 245 244 243 242 240 239 239 239 239 240 238 236 235 235 236 237 237 237 237
342 343 343 343 343 343 344 344 344 345 345 345 346 346 346 347 347 347 347 347 347 348 349 348 348 349 349 349 350 350 350 350 352 354 356 356 355 354 353 350 348 346 344 342 341 340 337 331 325 320 313 306 299 294 289 285 282 278 273 267 261 257 255 254 251 249 247 245 243 242 241 240 239 239 239 240 240 239 237 235 235 236 236 237 236
341 342 342 342 342 342 342 343 343 343 344 344 344 345 345 346 346 346 346 346 346 347 348 348 347 347 348 348 349 349 349 349 350 352 354 356 356 354 353 352 349 347 345 343 342 341 339 336 330 325 319 312 305 298 294 289 284 280 277 273 267 260 256 254 252 251 249 247 245 243 242 241 240 239 239 239 240 240 239 237 235 235 235 236 236
340 341 341 341 341 341 341 341 341 342 342 343 343 343 344 344 345 345 345 345 345 345 347 347 346 346 347 347 348 348 348 348 349 350 351 354 355 355 353 352 351 348 346 345 343 341 341 338 334 330 324 318 312 305 298 292 288 283 278 275 271 267 261 256 253 252 250 248 246 245 243 242 240 239 239 239 240 240 240 239 238 236 235 235 235
339 339 340 340 340 340 340 340 340 340 341 341 342 342 343 343 344 344 344 344 343 344 345 346 345 345 346 347 347 347 347 347 348 348 349 351 354 355 354 352 351 350 348 346 344 342 341 340 337 333 328 323 317 311 304 296 290 286 281 276 272 269 266 261 256 252 251 249 248 246 245 243 241 240 239 239 240 240 241 241 240 239 237 236 235
338 338 338 338 338 339 338 338 338 339 339 340 340 341 342 342 343 343 343 343 342 342 344 346 345 344 345 346 346 347 347 346 347 347 348 349 351 354 355 354 352 350 349 347 346 344 342 341 339 336 331 327 321 315 309 302 294 289 284 279 274 270 268 265 261 256 252 250 248 247 246 245 243 241 240 239 239 239 240 241 241 240 239 239 237
336 337 337 337 337 337 337 337 337 337 338 338 339 340 340 341 342 342 342 342 342 341 342 344 344 343 343 345 345 346 346 346 346 346 347 347 349 351 354 354 353 351 349 348 347 345 343 342 340 338 334 330 325 319 313 308 301 294 288 283 278 272 268 265 263 261 257 252 249 247 247 246 245 243 241 240 239 238 238 239 240 240 241 240 239
335 335 335 335 336 336 336 336 336 336 337 337 338 338 339 340 341 341 341 341 341 340 341 343 343 342 342 344 344 345 346 345 345 346 346 346 347 349 352 353 353 352 350 348 347 347 345 343 341 340 337 333 329 324 318 312 307 300 293 286 281 276 271 267 264 262 260 257 253 249 247 246 246 245 244 242 240 239 238 238 238 239 239 240 240
334 334 334 334 334 334 334 335 335 335 336 336 337 337 338 339 340 340 340 340 340 339 340 341 342 342 341 343 344 344 345 345 345 345 345 345 346 347 349 351 353 353 351 349 348 347 346 345 343 341 339 337 333 328 322 316 310 304 298 291 285 280 274 270 265 262 260 259 257 255 251 247 245 245 245 244 243 241 239 238 238 238 238 238 239
332 333 332 332 332 333 333 333 334 334 335 335 336 336 337 338 339 339 339 339 339 338 339 340 341 341 341 342 343 344 344 344 344 344 345 345 345 346 347 349 351 352 352 350 348 347 347 345 344 342 340 338 336 332 327 322 315 309 303 297 291 284 279 273 269 264 261 258 257 256 255 252 249 246 245 245 245 244 243 241 239 238 237 238 238
331 331 331 331 331 331 332 332 333 333 334 334 335 335 336 337 338 338 338 338 337 337 338 339 340 340 340 341 342 343 344 344 344 344 344 344 344 344 346 347 349 350 352 352 350 348 347 346 345 343 341 339 338 335 331 326 321 314 308 302 296 289 283 277 272 267 263 259 257 255 254 254 252 250 248 246 245 245 245 244 242 240 239 238 237
329 330 330 329 330 330 331 331 332 332 333 333 334 334 335 336 336 337 336 336 336 336 337 338 338 339 339 340 341 342 343 343 343 344 344 344 344 343 344 346 347 348 350 351 351 349 347 346 346 344 341 339 339 337 334 330 326 320 313 307 301 295 288 281 275 270 266 261 258 255 254 253 252 251 250 250 248 246 245 244 243 243 242 241 240
328 328 328 329 329 329 330 330 331 331 332 333 333 333 334 334 335 335 335 335 335 335 336 336 337 337 337 339 340 341 343 343 343 343 343 344 343 343 343 344 346 347 348 349 351 351 348 347 346 345 343 340 338 338 336 332 329 324 319 312 306 300 294 287 280 274 269 265 261 257 254 252 251 250 249 249 249 249 248 246 245 243 242 242 241
327 327 328 328 328 329 329 329 330 331 331 332 332 332 333 333 334 334 334 334 334 334 334 335 336 336 336 337 339 340 342 343 343 343 343 343 343 343 343 343 344 346 346 347 348 350 350 348 346 346 344 341 338 337 336 334 330 327 322 317 310 304 299 294 287 280 274 269 265 261 257 253 250 249 248 248 248 249 249 248 247 245 244 243 242
326 327 327 327 328 328 328 329 329 330 330 331 331 331 332 332 333 333 333 333 333 333 333 334 335 335 335 336 337 339 341 342 342 342 343 343 343 343 343 343 343 344 345 345 346 348 349 349 347 346 346 343 339 337 336 334 332 329 325 321 316 309 303 298 293 288 281 274 269 264 260 257 253 250 247 247 247 247 248 249 248 247 245 244 243
326 326 326 327 327 327 328 328 328 329 330 330 330 330 331 331 332 331 332 332 332 332 332 332 333 334 334 335 336 338 340 341 342 342 343 342 342 342 342 343 343 343 344 344 344 345 347 348 348 346 346 345 342 338 335 333 332 330 327 324 320 314 307 301 296 293 288 282 275 268 263 260 257 253 250 247 246 246 246 247 248 248 247 245 244
325 325 326 326 326 326 327 327 327 328 329 330 330 330 330 331 331 330 331 331 331 331 331 331 332 332 333 334 335 336 338 340 340 342 342 343 342 341 341 342 342 343 343 343 343 344 344 346 347 347 346 345 343 340 336 333 331 330 329 326 322 318 312 305 299 295 291 287 281 275 269 264 260 256 254 251 249 247 246 246 246 246 246 246 245
325 325 325 325 325 325 326 326 327 327 328 329 329 329 329 330 330 329 330 330 330 330 330 330 330 331 332 333 334 335 337 338 339 340 342 343 343 342 341 340 341 342 342 342 342 343 343 343 344 346 346 345 343 341 338 334 331 329 328 326 323 320 315 310 303 296 292 289 285 280 275 270 265 260 257 253 251 250 249 248 247 246 246 245 245